Home > Weather > Tarnów > Past weeks

Flag for Poland Past Weather in Tarnów, Poland — Yesterday and Last 2 Weeks

Now
86 °F

Warm.


Feels Like: 88 °F
Forecast: 66 / 74 °F
Wind: 2 mph from South

Location: Tarnow

Current Time: Jun 26, 2016 at 12:04:05 PM

Latest Report: Jun 26, 2016 at 11:00 AM


Visibility: 13 mi

Pressure: 29.90 "Hg

Humidity: 51%

Dew Point: 66 °F

Location of TarnówLocation

Past Weather in Tarnów — Graph

°F

Tarnów Temperature Yesterday

Maximum temperature yesterday: 95 °F (at 3:00 PM)
Minimum temperature yesterday: 67 °F (at 5:00 AM)
Average temperature yesterday: 81 °F

High & Low Weather Summary for the Past Weeks

 TemperatureHumidityPressure
High95 °F (Jun 25, 3:00 PM)97% (Jun 15, 6:00 AM)30.30 "Hg (Jun 15, 6:00 AM)
Low48 °F (Jun 12, 2:00 AM)29% (Jun 25, 4:00 PM)29.50 "Hg (Jun 14, 6:00 PM)
Average69 °F67%29.92 "Hg
* Reported Jun 11 10:00 AM — Jun 26 10:00 AM, Tarnów, Weather by CustomWeather, © 2016

Note: Actual official high and low records may vary slightly from our data, if they occured in-between our weather recording intervals... More about our weather records

Advertising

Tarnów Weather History for the Previous 24 Hours

Scroll right to see more
 ConditionsComfort  
Time TempWeatherWind HumidityBarometerVisibility
10:00 AM
Sun, Jun 26
82 °FWarm.2 mph63%29.90 "Hg16 mi
9:00 AM81 °FWarm.1 mph63%29.91 "Hg17 mi
8:00 AM81 °FWarm.3 mph60%29.90 "Hg16 mi
7:00 AM77 °FMild.1 mph71%29.91 "Hg17 mi
6:00 AM69 °FMild.No wind88%29.91 "Hg7 mi
5:00 AM67 °FMild.1 mph87%29.92 "Hg7 mi
4:00 AM68 °FMild.1 mph87%29.91 "Hg11 mi
3:00 AM68 °FMild.No wind87%29.91 "Hg10 mi
2:00 AM68 °FMild.No wind85%29.92 "Hg6 mi
1:00 AM71 °FMild.No wind79%29.92 "Hg12 mi
12:00 AM74 °FMild.1 mph72%29.91 "Hg12 mi
11:00 PM
Sat, Jun 25
76 °FMild.2 mph68%29.91 "Hg14 mi
10:00 PM77 °FWarm.2 mph65%29.91 "Hg13 mi
9:00 PM81 °FWarm.2 mph58%29.89 "Hg13 mi
8:00 PM84 °FWarm.2 mph55%29.87 "Hg12 mi
7:00 PM87 °FWarm.3 mph48%29.88 "Hg12 mi
6:00 PM90 °FHot.3 mph44%29.88 "Hg14 mi
5:00 PM92 °FHot.3 mph39%29.89 "Hg11 mi
4:00 PM93 °FHot.2 mph29%29.90 "Hg14 mi
3:00 PM95 °FExtremely hot.2 mph33%29.91 "Hg14 mi
2:00 PM94 °FExtremely hot.1 mph36%29.93 "Hg14 mi
1:00 PM92 °FHot.2 mph41%29.96 "Hg14 mi
12:00 PM90 °FHot.2 mph42%29.98 "Hg13 mi
Weather by CustomWeather, © 2016

See weather overviewHow to use our weather pages